When you browse on this site, cookies collect data to enhance your experience and personalize the content and advertising you see.
Visit our Privacy Policy to learn more. By continuing to use the site, you agree to this use of cookies and data.
  • In Österreich
  • Länderverzeichnis
  • Für 7 Tage
  • Wassertemperatur
  • Wetterkarte
  • News
  • Widgets
  • user-avatar
    Anmelden

    Stündliche Wetter Gryada

    Heute, 24 Oktober, Donnerstag

    Zeit Temperatur Niederschläge Wind Luftdruck Luftfeuchtigkeit
    00:00 +11°C° 0 mm 1 m/S 754 mmHg 87%
    01:00 +10°C° 0 mm 1 m/S 754 mmHg 88%
    02:00 +10°C° 0 mm 1 m/S 754 mmHg 89%
    03:00 +10°C° 0 mm 1 m/S 754 mmHg 90%
    04:00 +10°C° 0 mm 1 m/S 754 mmHg 91%
    05:00 +9°C° 0 mm 1 m/S 754 mmHg 92%
    06:00 +10°C° 0 mm 1 m/S 754 mmHg 91%
    07:00 +10°C° 0 mm 1 m/S 754 mmHg 90%
    08:00 +10°C° 0 mm 1 m/S 754 mmHg 89%
    09:00 +12°C° 0 mm 2 m/S 754 mmHg 83%
    10:00 +14°C° 0 mm 2 m/S 754 mmHg 76%
    11:00 +16°C° 0 mm 2 m/S 754 mmHg 69%
    12:00 +17°C° 0 mm 2 m/S 753 mmHg 68%
    13:00 +17°C° 0 mm 2 m/S 753 mmHg 66%
    14:00 +18°C° 0 mm 2 m/S 753 mmHg 64%
    15:00 +17°C° 0 mm 2 m/S 752 mmHg 70%
    16:00 +16°C° 0 mm 2 m/S 752 mmHg 75%
    17:00 +15°C° 0 mm 2 m/S 752 mmHg 81%
    18:00 +14°C° 0 mm 2 m/S 752 mmHg 83%
    19:00 +12°C° 0 mm 3 m/S 752 mmHg 85%
    20:00 +12°C° 0 mm 3 m/S 752 mmHg 87%
    21:00 +12°C° 0 mm 3 m/S 752 mmHg 89%
    22:00 +11°C° 0 mm 3 m/S 752 mmHg 90%
    23:00 +11°C° 0 mm 3 m/S 752 mmHg 92%

    Morgen, 25 Oktober, Freitag

    Zeit Temperatur Niederschläge Wind Luftdruck Luftfeuchtigkeit
    00:00 +11°C° 0 mm 3 m/S 752 mmHg 93%
    01:00 +11°C° 0 mm 3 m/S 752 mmHg 94%
    02:00 +11°C° 0 mm 3 m/S 752 mmHg 95%
    03:00 +11°C° 0 mm 3 m/S 752 mmHg 95%
    04:00 +11°C° 0 mm 3 m/S 752 mmHg 95%
    05:00 +11°C° 0 mm 3 m/S 751 mmHg 95%
    06:00 +11°C° 0 mm 3 m/S 752 mmHg 94%
    07:00 +11°C° 0 mm 3 m/S 752 mmHg 93%
    08:00 +11°C° 0 mm 3 m/S 752 mmHg 92%
    09:00 +13°C° 0 mm 3 m/S 752 mmHg 83%
    10:00 +16°C° 0 mm 3 m/S 752 mmHg 73%
    11:00 +17°C° 0 mm 3 m/S 752 mmHg 63%
    12:00 +18°C° 0 mm 3 m/S 752 mmHg 59%
    13:00 +19°C° 0 mm 3 m/S 751 mmHg 56%
    14:00 +20°C° 0 mm 3 m/S 751 mmHg 52%
    15:00 +18°C° 0 mm 3 m/S 751 mmHg 58%
    16:00 +17°C° 0 mm 2 m/S 751 mmHg 63%
    17:00 +15°C° 0 mm 2 m/S 751 mmHg 69%
    18:00 +15°C° 0 mm 2 m/S 751 mmHg 72%
    19:00 +14°C° 0 mm 2 m/S 751 mmHg 75%
    20:00 +13°C° 0 mm 2 m/S 752 mmHg 78%
    21:00 +13°C° 0 mm 2 m/S 752 mmHg 81%
    22:00 +13°C° 0 mm 2 m/S 752 mmHg 84%
    23:00 +12°C° 0 mm 2 m/S 753 mmHg 87%

    übermorgen, 26 Oktober, Samstag

    Zeit Temperatur Niederschläge Wind Luftdruck Luftfeuchtigkeit
    00:00 +12°C° 0 mm 2 m/S 753 mmHg 89%
    01:00 +12°C° 0 mm 2 m/S 753 mmHg 92%
    02:00 +10°C° 0 mm 2 m/S 754 mmHg 94%
    03:00 +10°C° 0 mm 2 m/S 754 mmHg 94%
    04:00 +10°C° 0 mm 2 m/S 754 mmHg 94%
    05:00 +10°C° 0 mm 2 m/S 754 mmHg 95%
    06:00 +11°C° 0 mm 1 m/S 754 mmHg 94%
    07:00 +11°C° 0 mm 1 m/S 755 mmHg 94%
    08:00 +11°C° 0 mm 1 m/S 755 mmHg 94%
    09:00 +13°C° 0 mm 1 m/S 755 mmHg 88%
    10:00 +14°C° 0 mm 2 m/S 755 mmHg 82%
    11:00 +16°C° 0 mm 2 m/S 755 mmHg 76%
    12:00 +16°C° 0 mm 2 m/S 755 mmHg 73%
    13:00 +17°C° 0 mm 3 m/S 754 mmHg 70%
    14:00 +18°C° 0 mm 3 m/S 754 mmHg 67%
    15:00 +17°C° 0 mm 3 m/S 754 mmHg 72%
    16:00 +15°C° 0 mm 2 m/S 753 mmHg 76%
    17:00 +14°C° 0 mm 2 m/S 753 mmHg 81%
    18:00 +14°C° 0 mm 2 m/S 753 mmHg 82%
    19:00 +13°C° 0 mm 3 m/S 753 mmHg 83%
    20:00 +12°C° 0 mm 3 m/S 753 mmHg 84%
    21:00 +12°C° 0 mm 3 m/S 753 mmHg 84%
    22:00 +12°C° 0 mm 3 m/S 753 mmHg 84%
    23:00 +12°C° 0 mm 3 m/S 752 mmHg 85%

    , 27 Oktober, Sonntag

    Zeit Temperatur Niederschläge Wind Luftdruck Luftfeuchtigkeit
    00:00 +12°C° 0 mm 3 m/S 752 mmHg 86%
    01:00 +12°C° 0 mm 3 m/S 752 mmHg 87%
    02:00 +12°C° 0 mm 3 m/S 752 mmHg 88%
    03:00 +11°C° 0 mm 3 m/S 751 mmHg 89%
    04:00 +11°C° 0 mm 3 m/S 751 mmHg 90%
    05:00 +11°C° 0 mm 3 m/S 751 mmHg 92%
    06:00 +11°C° 0 mm 3 m/S 751 mmHg 90%
    07:00 +11°C° 0 mm 3 m/S 751 mmHg 89%
    08:00 +11°C° 0 mm 3 m/S 751 mmHg 88%
    09:00 +13°C° 0 mm 3 m/S 750 mmHg 80%
    10:00 +14°C° 0 mm 4 m/S 750 mmHg 73%
    11:00 +17°C° 0 mm 4 m/S 750 mmHg 65%
    12:00 +18°C° 0 mm 4 m/S 750 mmHg 62%
    13:00 +17°C° 0 mm 5 m/S 750 mmHg 59%
    14:00 +19°C° 0 mm 5 m/S 749 mmHg 56%
    15:00 +18°C° 0 mm 4 m/S 749 mmHg 62%
    16:00 +17°C° 0 mm 4 m/S 749 mmHg 67%
    17:00 +16°C° 0 mm 3 m/S 748 mmHg 73%
    18:00 +14°C° 0 mm 3 m/S 748 mmHg 75%
    19:00 +13°C° 0 mm 3 m/S 748 mmHg 77%
    20:00 +13°C° 0 mm 3 m/S 748 mmHg 78%
    21:00 +12°C° 0 mm 3 m/S 748 mmHg 80%
    22:00 +12°C° 0 mm 3 m/S 748 mmHg 82%
    23:00 +11°C° 0 mm 3 m/S 748 mmHg 84%

    27 Oktober, Sonntag

    Zeit Temperatur Niederschläge Wind Luftdruck Luftfeuchtigkeit
    00:00 +12°C° 0 mm 3 m/S 752 mmHg 86%
    01:00 +12°C° 0 mm 3 m/S 752 mmHg 87%
    02:00 +12°C° 0 mm 3 m/S 752 mmHg 88%
    03:00 +11°C° 0 mm 3 m/S 751 mmHg 89%
    04:00 +11°C° 0 mm 3 m/S 751 mmHg 90%
    05:00 +11°C° 0 mm 3 m/S 751 mmHg 92%
    06:00 +11°C° 0 mm 3 m/S 751 mmHg 90%
    07:00 +11°C° 0 mm 3 m/S 751 mmHg 89%
    08:00 +11°C° 0 mm 3 m/S 751 mmHg 88%
    09:00 +13°C° 0 mm 3 m/S 750 mmHg 80%
    10:00 +14°C° 0 mm 4 m/S 750 mmHg 73%
    11:00 +17°C° 0 mm 4 m/S 750 mmHg 65%
    12:00 +18°C° 0 mm 4 m/S 750 mmHg 62%
    13:00 +17°C° 0 mm 5 m/S 750 mmHg 59%
    14:00 +19°C° 0 mm 5 m/S 749 mmHg 56%
    15:00 +18°C° 0 mm 4 m/S 749 mmHg 62%
    16:00 +17°C° 0 mm 4 m/S 749 mmHg 67%
    17:00 +16°C° 0 mm 3 m/S 748 mmHg 73%
    18:00 +14°C° 0 mm 3 m/S 748 mmHg 75%
    19:00 +13°C° 0 mm 3 m/S 748 mmHg 77%
    20:00 +13°C° 0 mm 3 m/S 748 mmHg 78%
    21:00 +12°C° 0 mm 3 m/S 748 mmHg 80%
    22:00 +12°C° 0 mm 3 m/S 748 mmHg 82%
    23:00 +11°C° 0 mm 3 m/S 748 mmHg 84%

    28 Oktober, Montag

    Zeit Temperatur Niederschläge Wind Luftdruck Luftfeuchtigkeit
    00:00 +11°C° 0 mm 3 m/S 747 mmHg 86%
    01:00 +11°C° 0 mm 3 m/S 747 mmHg 88%
    02:00 +10°C° 0 mm 3 m/S 747 mmHg 90%
    03:00 +10°C° 0 mm 3 m/S 747 mmHg 90%
    04:00 +10°C° 0 mm 3 m/S 747 mmHg 90%
    05:00 +10°C° 0 mm 3 m/S 747 mmHg 90%
    06:00 +10°C° 0 mm 3 m/S 747 mmHg 90%
    07:00 +10°C° 0 mm 3 m/S 747 mmHg 89%
    08:00 +11°C° 0 mm 4 m/S 747 mmHg 89%
    09:00 +11°C° 0 mm 4 m/S 747 mmHg 83%
    10:00 +12°C° 0 mm 4 m/S 748 mmHg 77%
    11:00 +13°C° 0 mm 4 m/S 748 mmHg 71%
    12:00 +13°C° 0 mm 4 m/S 748 mmHg 68%
    13:00 +12°C° 0 mm 4 m/S 748 mmHg 66%
    14:00 +12°C° 0 mm 3 m/S 748 mmHg 63%
    15:00 +11°C° 0 mm 3 m/S 748 mmHg 65%
    16:00 +10°C° 0 mm 2 m/S 748 mmHg 67%
    17:00 +10°C° 0 mm 2 m/S 748 mmHg 69%
    18:00 +9°C° 0 mm 2 m/S 749 mmHg 71%
    19:00 +8°C° 0 mm 2 m/S 749 mmHg 74%
    20:00 +9°C° 0 mm 1 m/S 749 mmHg 76%
    21:00 +8°C° 0 mm 1 m/S 749 mmHg 76%
    22:00 +8°C° 0 mm 1 m/S 749 mmHg 77%
    23:00 +8°C° 0 mm 1 m/S 750 mmHg 78%

    29 Oktober, Dienstag

    Zeit Temperatur Niederschläge Wind Luftdruck Luftfeuchtigkeit
    00:00 +7°C° 0 mm 1 m/S 750 mmHg 79%
    01:00 +6°C° 0 mm 0 m/S 750 mmHg 80%
    02:00 +6°C° 0 mm 0 m/S 750 mmHg 80%
    03:00 +6°C° 0 mm 0 m/S 749 mmHg 80%
    04:00 +6°C° 0 mm 1 m/S 749 mmHg 81%
    05:00 +6°C° 0 mm 1 m/S 749 mmHg 81%
    06:00 +7°C° 0 mm 1 m/S 749 mmHg 80%
    07:00 +7°C° 0 mm 1 m/S 750 mmHg 79%
    08:00 +7°C° 0 mm 1 m/S 750 mmHg 78%
    09:00 +8°C° 0 mm 1 m/S 750 mmHg 76%
    10:00 +9°C° 0 mm 1 m/S 750 mmHg 75%
    11:00 +9°C° 0 mm 1 m/S 750 mmHg 73%
    12:00 +9°C° 0.1 mm 1 m/S 750 mmHg 74%
    13:00 +9°C° 0.1 mm 1 m/S 749 mmHg 75%
    14:00 +9°C° 0.1 mm 1 m/S 749 mmHg 76%
    15:00 +9°C° 0.1 mm 1 m/S 749 mmHg 78%
    16:00 +8°C° 0.1 mm 0 m/S 749 mmHg 80%
    17:00 +7°C° 0.1 mm 0 m/S 749 mmHg 82%
    18:00 +7°C° 0.1 mm 0 m/S 750 mmHg 83%
    19:00 +7°C° 0.1 mm 0 m/S 750 mmHg 84%
    20:00 +6°C° 0.1 mm 0 m/S 750 mmHg 85%
    21:00 +7°C° 0 mm 1 m/S 750 mmHg 86%
    22:00 +6°C° 0 mm 1 m/S 750 mmHg 88%
    23:00 +5°C° 0 mm 1 m/S 750 mmHg 90%
    Mehr zeigen